Regional Weather Roundup
Issued by NWS Charleston, SC

Current Version | Previous Version | Graphics & Text | Print | Product List | Glossary On
Versions: 1 2 3 4 5 6 7 8 9 10 11 12 13 14 15 16 17 18 19 20 21 22 23 24 25 26 27 28 29 30 31 32 33 34 35 36 37 38 39 40 41 42 43 44 45 46 47 48 49 50
000
ASUS42 KCHS 241312
RWRCHS

Regional Weather Roundup
National Weather Service Charleston SC
800 AM EST SAT FEB 24 2018

NOTE: "fair" indicates few or no clouds below 12,000 feet with no
significant weather and/or obstructions to visibility.

Not all stations are quality controlled. Use data with caution,
especially dewpoint observations.

SCZ027-030-031-034>040-042>050-241400-
...Southeast South Carolina...

CITY           SKY/WX    TMP DP  RH WIND       PRES   REMARKS
N Charleston   FAIR      64  64 100 S5        30.26S
Waterfront Prk   N/A     64  64 100 CALM      30.12R
Mount Pleasant FAIR      63  63 100 CALM      30.27S
Johns Island   FAIR      66  66 100 CALM      30.27R
Pinopolis      NOT AVBL
Moncks Corner  FOG       57  57 100 CALM      30.26S VSB 1/4
Summerville    FAIR      59  59 100 CALM      30.27S FOG
Beaufort MCAS  FAIR      64  64 100 SW3       30.26S
Beaufort Arpt  FAIR      64  64 100 S3        30.26S FOG
Hilton Head Is SUNNY     66  64  94 S7        30.27S
Walterboro     FOG       61  61 100 CALM      30.28R VSB<1/4
Allendale      FOG       63  63 100 S3        30.25S VSB 1/2

...Southern Midlands and Pee Dee...

CITY           SKY/WX    TMP DP  RH WIND       PRES   REMARKS
Georgetown     FOG       61  59  94 CALM      30.28R VSB<1/4
Kingstree      FOG       61  59  94 SW3       30.27R VSB<1/4
Orangeburg     CLOUDY    64  63  96 SW7       30.26S FOG
Barnwell       FOG       63  63 100 CALM      30.26S VSB<1/4
Aiken          CLOUDY    61  61 100 S9        30.28S FOG
Manning        FOG       63  59  88 MISG      30.27R VSB 3/4
Columbia       CLOUDY    64  64 100 S6        30.23F FOG
Sumter         CLOUDY    64  64 100 S9        30.23S
Florence       FOG       64  64 100 S6        30.26S VSB 1/2
Myrtle Beach   PTSUNNY   64  63  96 SW3       30.28R
N Myrtle Beach CLOUDY    64  64 100 SW6       30.26S

$$

GAZ063-065-086>088-099>101-113>116-118-119-134>141-150-241400-
...Southeast Georgia...

CITY           SKY/WX    TMP DP  RH WIND       PRES   REMARKS
Savannah Arpt  FOG       64  64 100 CALM      30.26S VSB 1
Hunter AAF     FAIR      63  62  96 CALM      30.24R
Fort Stewart   FOG       60  60 100 CALM      30.24R VSB 1/8
Statesboro     FOG       64  32  30 S6        30.27R VSB 1/4
Sylvania       FOG       63  63 100 CALM      30.27R VSB 1/4
Claxton        LGT RAIN  62  62  99 CALM      30.26S VSB<1/4

...CSRA, Central and far Southeast Georgia...

CITY           SKY/WX    TMP DP  RH WIND       PRES   REMARKS
Thomson        CLOUDY    62  61  96 W6        30.28S
Augusta-Bush   FOG       62  62 100 S3        30.24S VSB 1/2
Augusta-Daniel CLOUDY    63  62  97 S7        30.25S FOG
Swainsboro     FOG       63  63 100 SW6       30.26S VSB 1/2
Vidalia        CLOUDY    64  64 100 SW6       30.25S FOG
Eastman        HAZE      62  56  81 CALM      30.27R VSB 1/4
Hazlehurst     FAIR      66  66 100 S5        30.24S
Alma           FOG       65  64  97 S3        30.25R VSB 1/2
Waycross       FOG       64  62  91 S6        30.25S VSB 1/2
Jesup          FOG       64  63  94 CALM      30.26S VSB<1/4
Baxley         FOG       63  63 100 S5        30.25S VSB 1/2
Brunswick      FAIR      64  63  94 CALM      30.26S
Saint Simons   FAIR      67  66  97 VRB3      30.26R

$$

SCZ027-028-034-036>038-045-046-048>050-GAZ119-141-241400-
...Lake and Supplemental Coastal Observations...

STATION/POSITION TIME  TEMP    WIND        PRES    WAVE   SWELL
                       AIR SEA DIR/SP/G            HT/PER HT/PER/DIR
                 (UTC) (F)     (DEG/KT/KT) (MB)    (FT/S) (FT/S/D)
Winyah Bay       1145   62        CALM     1025.0
Lake Murray      1220   62     200/  8/  9 1023.0F
ACE Basin NERRS  1145   61        CALM     1025.0
Fort Pulaski     1248   65 63  190/  2/  4 1025.0R
Sapelo Island    1200   65     160/  4     1024.0

$$

ANZ835-935-AMZ111-154-330-350-352-354-370-450-454-472-241400-
...C-MAN and Buoy Observations...

STATION/POSITION TIME  TEMP    WIND        PRES    WAVE   SWELL
                       AIR SEA DIR/SP/G            HT/PER HT/PER/DIR
                 (UTC) (F)     (DEG/KT/KT) (MB)    (FT/S) (FT/S/D)
Buoy 41004       1240   70 68  200/  8/ 10 1024.8R
Buoy 41008       1150   62 59  130/  4/  4 1024.4    3/10   3/110/10
Folly Beach CMAN 1200   63     220/  5/  5 1025.1R
Capers Nearshore 1208   60 65  200/  6/  8 1024.4S
Fripp Nearshore  NOT AVBL


STATION/POSITION TIME  TEMP    WIND        PRES    WAVE   SWELL
                       AIR SEA DIR/SP/G            HT/PER HT/PER/DIR
                 (UTC) (F)     (DEG/KT/KT) (MB)    (FT/S) (FT/S/D)
5E St. Marys GA  1300      63                N/A     3/ 9   2/120/11
Frying Pan Buoy  1240   71 70  230/ 12/ 17 1024.8S
Buoy 41025       1240   71 73  260/ 14/ 16 1024.7R
Cape Lookout NC  1200          250/  9/ 11 1024.8S
Buoy 41002       1150   71 73  200/  8/ 10 1026.4    5/ 9   5/ 90/ 9
Buoy 41010       NOT AVBL
St Augustine FL  1200   65 66  330/  1/  2 1024.7R


$$




USA.gov is the U.S. government's official web portal to all federal, state and local government web resources and services.